| time (UTC) | temp C | wind direction | speed KPH | gust KPH | rain 1hr cm | rain 24hr cm | rain mn cm | humidity % | barometer mb |
| 20260504081016 | 13 | 0.0 | 0.0 | 0.00 | 0.00 | 0.00 | 83 | 1009.8 | |
| 20260504050018 | 17 | 0.0 | 0.0 | 0.00 | 0.00 | 0.00 | 70 | 1009.8 | |
| 20260504045017 | 17 | 0.0 | 0.0 | 0.00 | 0.00 | 0.00 | 71 | 1009.8 | |
| 20260504044017 | 17 | 0.0 | 0.0 | 0.00 | 0.00 | 0.00 | 69 | 1009.7 | |
| 20260504043017 | 18 | 0.0 | 0.0 | 0.00 | 0.00 | 0.00 | 69 | 1009.7 | |
| 20260504042017 | 18 | 0.0 | 0.0 | 0.00 | 0.00 | 0.00 | 71 | 1009.7 | |
| 20260504041017 | 18 | 0.0 | 0.0 | 0.00 | 0.00 | 0.00 | 69 | 1009.6 | |
| 20260504040017 | 19 | 0.0 | 0.0 | 0.00 | 0.00 | 0.00 | 67 | 1009.5 | |
| 20260504035017 | 20 | 0.0 | 0.0 | 0.00 | 0.00 | 0.00 | 67 | 1009.5 | |
| 20260504034017 | 20 | 0.0 | 0.0 | 0.00 | 0.00 | 0.00 | 65 | 1009.4 | |
| 20260504033017 | 20 | 0.0 | 0.0 | 0.00 | 0.00 | 0.00 | 65 | 1009.3 | |
| 20260504032017 | 21 | 0.0 | 0.0 | 0.00 | 0.00 | 0.00 | 62 | 1009.2 | |
| 20260504031017 | 21 | 0.0 | 1.6 | 0.00 | 0.00 | 0.00 | 59 | 1009.2 | |
| 20260504030017 | 22 | 0.0 | 1.6 | 0.00 | 0.00 | 0.00 | 57 | 1009.2 | |
| 20260504025017 | 22 | 0.0 | 3.2 | 0.00 | 0.00 | 0.00 | 57 | 1009.2 | |
| 20260504024017 | 23 | 158 | 1.6 | 4.8 | 0.00 | 0.00 | 0.00 | 55 | 1009.2 |
| 20260504023017 | 23 | 158 | 1.6 | 4.8 | 0.00 | 0.00 | 0.00 | 53 | 1009.1 |
| 20260504022057 | 24 | 158 | 1.6 | 4.8 | 0.00 | 0.00 | 0.00 | 52 | 1009.2 |
| 20260504021017 | 24 | 158 | 1.6 | 4.8 | 0.00 | 0.00 | 0.00 | 50 | 1009.2 |
| 20260504020017 | 25 | 158 | 1.6 | 4.8 | 0.00 | 0.00 | 0.00 | 50 | 1009.2 |
| 20260504015017 | 25 | 158 | 1.6 | 4.8 | 0.00 | 0.00 | 0.00 | 47 | 1009.2 |
| 20260504014017 | 26 | 0.0 | 4.8 | 0.00 | 0.00 | 0.00 | 46 | 1009.4 | |
| 20260504013017 | 26 | 158 | 1.6 | 4.8 | 0.00 | 0.00 | 0.00 | 44 | 1009.4 |
| 20260504012017 | 26 | 158 | 1.6 | 6.4 | 0.00 | 0.00 | 0.00 | 43 | 1009.4 |
| 20260504011017 | 26 | 0.0 | 4.8 | 0.00 | 0.00 | 0.00 | 46 | 1009.6 | |
| 20260504010017 | 26 | 0.0 | 4.8 | 0.00 | 0.00 | 0.00 | 45 | 1009.6 | |
| 20260504005017 | 26 | 158 | 1.6 | 6.4 | 0.00 | 0.00 | 0.00 | 44 | 1009.7 |
| 20260504004017 | 26 | 158 | 1.6 | 4.8 | 0.00 | 0.00 | 0.00 | 45 | 1009.8 |
| 20260504003017 | 26 | 0.0 | 3.2 | 0.00 | 0.00 | 0.00 | 45 | 1009.8 | |
| 20260504002017 | 26 | 158 | 1.6 | 4.8 | 0.00 | 0.00 | 0.00 | 45 | 1009.9 |
| 20260504001017 | 26 | 0.0 | 8.0 | 0.00 | 0.00 | 0.00 | 43 | 1010.0 | |
| 20260504000017 | 26 | 0.0 | 3.2 | 0.00 | 0.00 | 0.00 | 45 | 1010.1 | |
| 20260503235017 | 26 | 158 | 1.6 | 6.4 | 0.00 | 0.00 | 0.00 | 46 | 1010.2 |
| 20260503234017 | 26 | 158 | 1.6 | 6.4 | 0.00 | 0.00 | 0.00 | 45 | 1010.3 |
| 20260503233018 | 26 | 0.0 | 4.8 | 0.00 | 0.00 | 0.00 | 44 | 1010.4 | |
| 20260503232016 | 26 | 225 | 1.6 | 6.4 | 0.00 | 0.00 | 0.00 | 43 | 1010.5 |
| 20260503231017 | 26 | 158 | 1.6 | 6.4 | 0.00 | 0.00 | 0.00 | 43 | 1010.7 |
| 20260503230017 | 26 | 158 | 3.2 | 9.7 | 0.00 | 0.00 | 0.00 | 43 | 1010.8 |
| 20260503225016 | 26 | 158 | 1.6 | 8.0 | 0.00 | 0.00 | 0.00 | 42 | 1010.9 |
| 20260503224016 | 26 | 158 | 1.6 | 6.4 | 0.00 | 0.00 | 0.00 | 42 | 1011.0 |
| 20260503223017 | 27 | 225 | 1.6 | 9.7 | 0.00 | 0.00 | 0.00 | 43 | 1011.2 |
| 20260503222016 | 27 | 203 | 1.6 | 9.7 | 0.00 | 0.00 | 0.00 | 44 | 1011.2 |
| 20260503221017 | 27 | 225 | 1.6 | 8.0 | 0.00 | 0.00 | 0.00 | 45 | 1011.2 |
| 20260503220016 | 27 | 158 | 1.6 | 8.0 | 0.00 | 0.00 | 0.00 | 47 | 1011.3 |
| 20260503215017 | 27 | 158 | 1.6 | 6.4 | 0.00 | 0.00 | 0.00 | 48 | 1011.4 |
| 20260503214016 | 27 | 0.0 | 4.8 | 0.00 | 0.00 | 0.00 | 48 | 1011.5 | |
| 20260503213016 | 27 | 225 | 1.6 | 4.8 | 0.00 | 0.00 | 0.00 | 49 | 1011.5 |
| 20260503212036 | 26 | 158 | 1.6 | 8.0 | 0.00 | 0.00 | 0.00 | 48 | 1011.7 |
| 20260503211036 | 26 | 158 | 1.6 | 8.0 | 0.00 | 0.00 | 0.00 | 49 | 1011.7 |
| 20260503210016 | 26 | 158 | 1.6 | 6.4 | 0.00 | 0.00 | 0.00 | 50 | 1011.9 |
| 20260503205056 | 26 | 180 | 1.6 | 3.2 | 0.00 | 0.00 | 0.00 | 51 | 1012.0 |
| 20260503204017 | 25 | 158 | 1.6 | 6.4 | 0.00 | 0.00 | 0.00 | 52 | 1012.1 |
| 20260503203017 | 25 | 225 | 1.6 | 4.8 | 0.00 | 0.00 | 0.00 | 49 | 1012.3 |
| 20260503202016 | 25 | 0.0 | 4.8 | 0.00 | 0.00 | 0.00 | 51 | 1012.4 | |
| 20260503201036 | 24 | 0.0 | 3.2 | 0.00 | 0.00 | 0.00 | 53 | 1012.5 | |
| 20260503200016 | 24 | 225 | 1.6 | 4.8 | 0.00 | 0.00 | 0.00 | 52 | 1012.6 |
| 20260503195017 | 24 | 0.0 | 4.8 | 0.00 | 0.00 | 0.00 | 56 | 1012.8 | |
| 20260503194016 | 23 | 225 | 1.6 | 6.4 | 0.00 | 0.00 | 0.00 | 59 | 1012.9 |
| 20260503193017 | 23 | 0.0 | 4.8 | 0.00 | 0.00 | 0.00 | 59 | 1013.0 | |
| 20260503192118 | 23 | 0.0 | 3.2 | 0.00 | 0.00 | 0.00 | 60 | 1013.2 | |
| 20260503191036 | 22 | 158 | 1.6 | 6.4 | 0.00 | 0.00 | 0.00 | 61 | 1013.3 |
| 20260503190019 | 22 | 158 | 1.6 | 6.4 | 0.00 | 0.00 | 0.00 | 59 | 1013.4 |
| 20260503185036 | 22 | 225 | 1.6 | 6.4 | 0.00 | 0.00 | 0.00 | 57 | 1013.5 |
| 20260503184036 | 22 | 158 | 1.6 | 4.8 | 0.00 | 0.00 | 0.00 | 56 | 1013.7 |
| 20260503183016 | 21 | 0.0 | 3.2 | 0.00 | 0.00 | 0.00 | 58 | 1013.8 | |
| 20260503182017 | 21 | 158 | 1.6 | 4.8 | 0.00 | 0.00 | 0.00 | 60 | 1013.9 |
| 20260503181016 | 20 | 0.0 | 4.8 | 0.00 | 0.00 | 0.00 | 61 | 1013.9 | |
| 20260503180016 | 20 | 158 | 1.6 | 4.8 | 0.00 | 0.00 | 0.00 | 63 | 1014.0 |
| 20260503175036 | 20 | 158 | 1.6 | 4.8 | 0.00 | 0.00 | 0.00 | 63 | 1014.1 |
| 20260503174016 | 19 | 158 | 1.6 | 3.2 | 0.00 | 0.00 | 0.00 | 64 | 1014.2 |
| 20260503173016 | 18 | 158 | 1.6 | 6.4 | 0.00 | 0.00 | 0.00 | 68 | 1014.4 |
| 20260503172016 | 18 | 158 | 1.6 | 4.8 | 0.00 | 0.00 | 0.00 | 71 | 1014.4 |
| 20260503171016 | 17 | 0.0 | 6.4 | 0.00 | 0.00 | 0.00 | 72 | 1014.4 | |
| 20260503131015 | 10 | 0.0 | 0.0 | 0.00 | 0.00 | 0.00 | 94 | 1014.5 |